Time,TemperatureF,DewpointF,PressureIn,WindDirection,WindDirectionDegrees,WindSpeedMPH,WindSpeedGustMPH,Humidity,HourlyPrecipIn,Conditions,Clouds,dailyrainin,SoftwareType,DateUTC
2013-10-26 00:06:00,46.9,26.5,29.93,SW,225,15.0,16.0,45,0.00,,,0.00,WUHU21023XXSP,2013-10-26 05:06:00,
2013-10-26 00:12:00,46.8,26.4,29.93,SW,225,17.0,17.0,45,0.00,,,0.00,WUHU21023XXSP,2013-10-26 05:12:00,
2013-10-26 00:19:00,46.6,26.8,29.93,WSW,247,7.0,17.0,46,0.00,,,0.00,WUHU21023XXSP,2013-10-26 05:19:00,
2013-10-26 00:25:00,46.4,26.6,29.92,SSW,202,5.0,9.0,46,0.00,,,0.00,WUHU21023XXSP,2013-10-26 05:25:00,
2013-10-26 00:31:00,46.2,26.4,29.92,SE,135,5.0,14.0,46,0.00,,,0.00,WUHU21023XXSP,2013-10-26 05:31:00,
2013-10-26 00:38:00,46.0,26.3,29.91,SSW,202,6.0,7.0,46,0.00,,,0.00,WUHU21023XXSP,2013-10-26 05:38:00,
2013-10-26 00:44:00,46.0,26.8,29.91,SW,225,0.0,7.0,47,0.00,,,0.00,WUHU21023XXSP,2013-10-26 05:44:00,
2013-10-26 00:51:00,46.0,26.8,29.91,SW,225,2.0,10.0,47,0.00,,,0.00,WUHU21023XXSP,2013-10-26 05:51:00,
2013-10-26 00:57:00,45.7,26.5,29.91,SSW,202,13.0,13.0,47,0.00,,,0.00,WUHU21023XXSP,2013-10-26 05:57:00,
2013-10-26 01:04:00,45.7,27.0,29.91,SSW,202,14.0,14.0,48,0.00,,,0.00,WUHU21023XXSP,2013-10-26 06:04:00,
2013-10-26 01:10:00,45.5,26.9,29.89,SSW,202,7.0,14.0,48,0.00,,,0.00,WUHU21023XXSP,2013-10-26 06:10:00,
2013-10-26 01:16:00,45.5,26.9,29.89,SSW,202,5.0,16.0,48,0.00,,,0.00,WUHU21023XXSP,2013-10-26 06:16:00,
2013-10-26 01:23:00,45.3,26.7,29.89,SSW,202,13.0,16.0,48,0.00,,,0.00,WUHU21023XXSP,2013-10-26 06:23:00,
2013-10-26 01:29:00,45.1,27.1,29.88,SSE,157,4.0,13.0,49,0.00,,,0.00,WUHU21023XXSP,2013-10-26 06:29:00,
2013-10-26 01:36:00,45.1,27.1,29.87,WSW,247,8.0,13.0,49,0.00,,,0.00,WUHU21023XXSP,2013-10-26 06:36:00,
2013-10-26 01:42:00,45.1,27.1,29.87,SSW,202,7.0,8.0,49,0.00,,,0.00,WUHU21023XXSP,2013-10-26 06:42:00,
2013-10-26 01:49:00,45.0,26.9,29.86,SSW,202,6.0,10.0,49,0.00,,,0.00,WUHU21023XXSP,2013-10-26 06:49:00,
2013-10-26 01:55:00,45.0,27.5,29.85,SSW,202,10.0,10.0,50,0.00,,,0.00,WUHU21023XXSP,2013-10-26 06:55:00,
2013-10-26 02:01:00,44.8,27.3,29.85,SSE,157,3.0,10.0,50,0.00,,,0.00,WUHU21023XXSP,2013-10-26 07:01:00,
2013-10-26 02:08:00,44.8,27.3,29.84,WSW,247,7.0,10.0,50,0.00,,,0.00,WUHU21023XXSP,2013-10-26 07:08:00,
2013-10-26 02:14:00,44.6,27.1,29.84,SE,135,6.0,15.0,50,0.00,,,0.00,WUHU21023XXSP,2013-10-26 07:14:00,
2013-10-26 02:21:00,44.6,27.1,29.84,SW,225,5.0,15.0,50,0.00,,,0.00,WUHU21023XXSP,2013-10-26 07:21:00,
2013-10-26 02:27:00,44.4,27.0,29.84,SSW,202,2.0,12.0,50,0.00,,,0.00,WUHU21023XXSP,2013-10-26 07:27:00,
2013-10-26 02:33:00,44.6,27.1,29.83,SW,225,16.0,16.0,50,0.00,,,0.00,WUHU21023XXSP,2013-10-26 07:33:00,
2013-10-26 02:40:00,44.4,27.0,29.83,SW,225,5.0,16.0,50,0.00,,,0.00,WUHU21023XXSP,2013-10-26 07:40:00,
2013-10-26 02:46:00,44.4,27.0,29.82,SSW,202,6.0,8.0,50,0.00,,,0.00,WUHU21023XXSP,2013-10-26 07:46:00,
2013-10-26 02:53:00,44.4,27.0,29.82,SW,225,6.0,9.0,50,0.00,,,0.00,WUHU21023XXSP,2013-10-26 07:53:00,
2013-10-26 02:59:00,44.4,27.4,29.82,South,180,6.0,6.0,51,0.00,,,0.00,WUHU21023XXSP,2013-10-26 07:59:00,
2013-10-26 03:06:00,44.4,27.4,29.82,SSW,202,7.0,9.0,51,0.00,,,0.00,WUHU21023XXSP,2013-10-26 08:06:00,
2013-10-26 03:12:00,44.4,27.4,29.82,SSW,202,2.0,9.0,51,0.00,,,0.00,WUHU21023XXSP,2013-10-26 08:12:00,
2013-10-26 03:18:00,44.4,27.4,29.81,SW,225,13.0,13.0,51,0.00,,,0.00,WUHU21023XXSP,2013-10-26 08:18:00,
2013-10-26 03:25:00,44.6,27.6,29.82,WSW,247,3.0,13.0,51,0.00,,,0.00,WUHU21023XXSP,2013-10-26 08:25:00,
2013-10-26 03:31:00,44.8,27.8,29.81,SSW,202,11.0,11.0,51,0.00,,,0.00,WUHU21023XXSP,2013-10-26 08:31:00,
2013-10-26 03:38:00,44.8,27.8,29.81,South,180,1.0,11.0,51,0.00,,,0.00,WUHU21023XXSP,2013-10-26 08:38:00,
2013-10-26 03:44:00,44.8,27.8,29.81,West,270,7.0,7.0,51,0.00,,,0.00,WUHU21023XXSP,2013-10-26 08:44:00,
2013-10-26 03:50:00,44.8,27.8,29.81,West,270,3.0,7.0,51,0.00,,,0.00,WUHU21023XXSP,2013-10-26 08:50:00,
2013-10-26 03:57:00,44.8,27.8,29.80,WSW,247,6.0,6.0,51,0.00,,,0.00,WUHU21023XXSP,2013-10-26 08:57:00,
2013-10-26 04:03:00,45.0,27.9,29.80,WSW,247,7.0,7.0,51,0.00,,,0.00,WUHU21023XXSP,2013-10-26 09:03:00,
2013-10-26 04:10:00,44.8,27.8,29.80,SW,225,2.0,9.0,51,0.00,,,0.00,WUHU21023XXSP,2013-10-26 09:10:00,
2013-10-26 04:16:00,45.0,27.9,29.80,SW,225,1.0,9.0,51,0.00,,,0.00,WUHU21023XXSP,2013-10-26 09:16:00,
2013-10-26 04:23:00,44.8,28.2,29.80,WSW,247,8.0,8.0,52,0.00,,,0.00,WUHU21023XXSP,2013-10-26 09:23:00,
2013-10-26 04:29:00,45.0,28.4,29.80,WSW,247,7.0,8.0,52,0.00,,,0.00,WUHU21023XXSP,2013-10-26 09:29:00,
2013-10-26 04:35:00,45.0,28.4,29.80,SSW,202,3.0,7.0,52,0.00,,,0.00,WUHU21023XXSP,2013-10-26 09:35:00,
2013-10-26 04:42:00,45.0,28.4,29.80,South,180,4.0,9.0,52,0.00,,,0.00,WUHU21023XXSP,2013-10-26 09:42:00,
2013-10-26 04:48:00,45.0,28.4,29.79,SW,225,5.0,9.0,52,0.00,,,0.00,WUHU21023XXSP,2013-10-26 09:48:00,
2013-10-26 04:55:00,45.0,28.4,29.79,SW,225,5.0,7.0,52,0.00,,,0.00,WUHU21023XXSP,2013-10-26 09:55:00,
2013-10-26 05:01:00,45.0,28.4,29.79,SW,225,0.0,9.0,52,0.00,,,0.00,WUHU21023XXSP,2013-10-26 10:01:00,
2013-10-26 05:08:00,45.1,28.5,29.79,SW,225,10.0,10.0,52,0.00,,,0.00,WUHU21023XXSP,2013-10-26 10:08:00,
2013-10-26 05:14:00,45.1,28.5,29.78,SSW,202,3.0,10.0,52,0.00,,,0.00,WUHU21023XXSP,2013-10-26 10:14:00,
2013-10-26 05:20:00,45.1,28.5,29.79,SSW,202,7.0,7.0,52,0.00,,,0.00,WUHU21023XXSP,2013-10-26 10:20:00,
2013-10-26 05:27:00,45.1,28.5,29.79,SW,225,9.0,9.0,52,0.00,,,0.00,WUHU21023XXSP,2013-10-26 10:27:00,
2013-10-26 05:33:00,45.1,28.5,29.80,West,270,3.0,9.0,52,0.00,,,0.00,WUHU21023XXSP,2013-10-26 10:33:00,
2013-10-26 05:40:00,45.1,28.5,29.80,SW,225,8.0,8.0,52,0.00,,,0.00,WUHU21023XXSP,2013-10-26 10:40:00,
2013-10-26 05:46:00,45.1,28.5,29.79,West,270,0.0,8.0,53,0.00,,,0.00,WUHU21023XXSP,2013-10-26 10:46:00,
2013-10-26 05:53:00,45.0,28.8,29.78,SSW,202,1.0,4.0,53,0.00,,,0.00,WUHU21023XXSP,2013-10-26 10:53:00,
2013-10-26 05:59:00,45.0,28.8,29.79,SW,225,2.0,6.0,53,0.00,,,0.00,WUHU21023XXSP,2013-10-26 10:59:00,
2013-10-26 06:05:00,44.8,28.7,29.79,South,180,2.0,5.0,53,0.00,,,0.00,WUHU21023XXSP,2013-10-26 11:05:00,
2013-10-26 06:12:00,44.6,28.9,29.79,West,270,2.0,6.0,54,0.00,,,0.00,WUHU21023XXSP,2013-10-26 11:12:00,
2013-10-26 06:18:00,44.4,28.8,29.79,WSW,247,7.0,7.0,54,0.00,,,0.00,WUHU21023XXSP,2013-10-26 11:18:00,
2013-10-26 06:25:00,44.4,28.8,29.79,SW,225,1.0,9.0,54,0.00,,,0.00,WUHU21023XXSP,2013-10-26 11:25:00,
2013-10-26 06:31:00,44.2,28.6,29.79,WSW,247,2.0,4.0,54,0.00,,,0.00,WUHU21023XXSP,2013-10-26 11:31:00,
2013-10-26 06:38:00,44.1,29.0,29.79,West,270,3.0,4.0,55,0.00,,,0.00,WUHU21023XXSP,2013-10-26 11:38:00,
2013-10-26 06:44:00,43.9,28.7,29.80,WSW,247,1.0,3.0,55,0.00,,,0.00,WUHU21023XXSP,2013-10-26 11:44:00,
2013-10-26 06:50:00,43.7,29.0,29.80,West,270,2.0,4.0,56,0.00,,,0.00,WUHU21023XXSP,2013-10-26 11:50:00,
2013-10-26 06:57:00,43.5,28.8,29.80,SW,225,1.0,4.0,56,0.00,,,0.00,WUHU21023XXSP,2013-10-26 11:57:00,
2013-10-26 07:03:00,43.5,28.8,29.80,SW,225,0.0,4.0,56,0.00,,,0.00,WUHU21023XXSP,2013-10-26 12:03:00,
2013-10-26 07:10:00,43.3,29.1,29.80,SSE,157,1.0,2.0,57,0.00,,,0.00,WUHU21023XXSP,2013-10-26 12:10:00,
2013-10-26 07:16:00,43.2,28.9,29.80,West,270,6.0,6.0,57,0.00,,,0.00,WUHU21023XXSP,2013-10-26 12:16:00,
2013-10-26 07:22:00,43.0,29.1,29.80,NW,315,0.0,6.0,58,0.00,,,0.00,WUHU21023XXSP,2013-10-26 12:22:00,
2013-10-26 07:29:00,43.0,29.1,29.80,West,270,0.0,3.0,58,0.00,,,0.00,WUHU21023XXSP,2013-10-26 12:29:00,
2013-10-26 07:35:00,42.8,29.0,29.80,SW,225,0.0,3.0,58,0.00,,,0.00,WUHU21023XXSP,2013-10-26 12:35:00,
2013-10-26 07:42:00,42.6,29.2,29.80,WSW,247,1.0,2.0,59,0.00,,,0.00,WUHU21023XXSP,2013-10-26 12:42:00,
2013-10-26 07:48:00,42.6,29.2,29.79,West,270,0.0,1.0,59,0.00,,,0.00,WUHU21023XXSP,2013-10-26 12:48:00,
2013-10-26 07:55:00,42.6,29.2,29.79,West,270,2.0,2.0,59,0.00,,,0.00,WUHU21023XXSP,2013-10-26 12:55:00,
2013-10-26 08:01:00,42.6,29.2,29.79,WNW,292,4.0,4.0,59,0.00,,,0.00,WUHU21023XXSP,2013-10-26 13:01:00,
2013-10-26 08:07:00,43.0,30.0,29.80,NW,315,0.0,4.0,60,0.00,,,0.00,WUHU21023XXSP,2013-10-26 13:07:00,
2013-10-26 08:14:00,43.0,30.0,29.80,WSW,247,2.0,3.0,60,0.00,,,0.00,WUHU21023XXSP,2013-10-26 13:14:00,
2013-10-26 08:20:00,43.0,30.0,29.80,SSW,202,0.0,2.0,60,0.00,,,0.00,WUHU21023XXSP,2013-10-26 13:20:00,
2013-10-26 08:27:00,43.3,30.8,29.80,SSW,202,1.0,7.0,61,0.00,,,0.00,WUHU21023XXSP,2013-10-26 13:27:00,
2013-10-26 08:33:00,43.3,30.8,29.80,WNW,292,0.0,1.0,61,0.00,,,0.00,WUHU21023XXSP,2013-10-26 13:33:00,
2013-10-26 08:39:00,43.7,31.1,29.80,WNW,292,2.0,4.0,61,0.00,,,0.00,WUHU21023XXSP,2013-10-26 13:39:00,
2013-10-26 08:46:00,43.9,31.3,29.80,NW,315,1.0,4.0,61,0.00,,,0.00,WUHU21023XXSP,2013-10-26 13:46:00,
2013-10-26 08:52:00,44.2,31.7,29.80,West,270,0.0,2.0,61,0.00,,,0.00,WUHU21023XXSP,2013-10-26 13:52:00,
2013-10-26 08:59:00,44.4,32.2,29.80,West,270,3.0,3.0,62,0.00,,,0.00,WUHU21023XXSP,2013-10-26 13:59:00,
2013-10-26 09:05:00,44.8,32.6,29.81,WNW,292,0.0,3.0,62,0.00,,,0.00,WUHU21023XXSP,2013-10-26 14:05:00,
2013-10-26 09:12:00,45.0,32.7,29.80,WNW,292,0.0,2.0,62,0.00,,,0.00,WUHU21023XXSP,2013-10-26 14:12:00,
2013-10-26 09:18:00,45.1,32.9,29.80,West,270,0.0,4.0,62,0.00,,,0.00,WUHU21023XXSP,2013-10-26 14:18:00,
2013-10-26 09:24:00,45.5,33.2,29.81,West,270,0.0,4.0,62,0.00,,,0.00,WUHU21023XXSP,2013-10-26 14:24:00,
2013-10-26 09:31:00,46.0,33.7,29.81,WNW,292,3.0,3.0,62,0.00,,,0.00,WUHU21023XXSP,2013-10-26 14:31:00,
2013-10-26 09:37:00,46.6,34.2,29.81,NW,315,1.0,3.0,62,0.00,,,0.00,WUHU21023XXSP,2013-10-26 14:37:00,
2013-10-26 09:44:00,46.9,34.6,29.81,WNW,292,7.0,7.0,62,0.00,,,0.00,WUHU21023XXSP,2013-10-26 14:44:00,
2013-10-26 09:50:00,47.1,34.8,29.81,WNW,292,2.0,7.0,62,0.00,,,0.00,WUHU21023XXSP,2013-10-26 14:50:00,
2013-10-26 09:57:00,47.5,35.1,29.81,NW,315,7.0,7.0,62,0.00,,,0.00,WUHU21023XXSP,2013-10-26 14:57:00,
2013-10-26 10:03:00,47.7,35.3,29.81,WNW,292,3.0,7.0,62,0.00,,,0.00,WUHU21023XXSP,2013-10-26 15:03:00,
2013-10-26 10:09:00,48.0,35.6,29.81,West,270,2.0,5.0,62,0.00,,,0.00,WUHU21023XXSP,2013-10-26 15:09:00,
2013-10-26 10:16:00,48.2,35.4,29.81,WNW,292,0.0,5.0,61,0.00,,,0.00,WUHU21023XXSP,2013-10-26 15:16:00,
2013-10-26 10:22:00,48.7,35.9,29.81,West,270,4.0,5.0,61,0.00,,,0.00,WUHU21023XXSP,2013-10-26 15:22:00,
2013-10-26 10:29:00,49.6,36.4,29.81,WNW,292,5.0,5.0,60,0.00,,,0.00,WUHU21023XXSP,2013-10-26 15:29:00,
2013-10-26 10:35:00,50.2,36.8,29.81,NW,315,3.0,6.0,60,0.00,,,0.00,WUHU21023XXSP,2013-10-26 15:35:00,
2013-10-26 10:42:00,50.5,36.7,29.81,NW,315,5.0,5.0,59,0.00,,,0.00,WUHU21023XXSP,2013-10-26 15:42:00,
2013-10-26 10:48:00,50.9,36.6,29.81,NW,315,3.0,5.0,58,0.00,,,0.00,WUHU21023XXSP,2013-10-26 15:48:00,
2013-10-26 10:54:00,51.1,36.8,29.81,NW,315,6.0,8.0,58,0.00,,,0.00,WUHU21023XXSP,2013-10-26 15:54:00,
2013-10-26 11:01:00,51.6,36.8,29.82,WNW,292,3.0,6.0,57,0.00,,,0.00,WUHU21023XXSP,2013-10-26 16:01:00,
2013-10-26 11:07:00,52.0,37.1,29.82,WNW,292,7.0,7.0,57,0.00,,,0.00,WUHU21023XXSP,2013-10-26 16:07:00,
2013-10-26 11:14:00,52.3,37.0,29.82,NW,315,4.0,7.0,56,0.00,,,0.00,WUHU21023XXSP,2013-10-26 16:14:00,
2013-10-26 11:20:00,52.5,36.7,29.82,NW,315,3.0,6.0,55,0.00,,,0.00,WUHU21023XXSP,2013-10-26 16:20:00,
2013-10-26 11:27:00,52.2,35.9,29.82,NW,315,3.0,7.0,54,0.00,,,0.00,WUHU21023XXSP,2013-10-26 16:27:00,
2013-10-26 11:33:00,52.2,35.9,29.83,West,270,2.0,4.0,54,0.00,,,0.00,WUHU21023XXSP,2013-10-26 16:33:00,
2013-10-26 11:39:00,52.2,35.9,29.84,NW,315,2.0,3.0,54,0.00,,,0.00,WUHU21023XXSP,2013-10-26 16:39:00,
2013-10-26 11:46:00,52.0,35.8,29.84,NNW,337,5.0,5.0,54,0.00,,,0.00,WUHU21023XXSP,2013-10-26 16:46:00,
2013-10-26 11:52:00,51.6,35.0,29.84,NW,315,4.0,5.0,53,0.00,,,0.00,WUHU21023XXSP,2013-10-26 16:52:00,
2013-10-26 11:59:00,51.6,35.0,29.84,NNW,337,7.0,7.0,53,0.00,,,0.00,WUHU21023XXSP,2013-10-26 16:59:00,
2013-10-26 12:05:00,51.4,34.8,29.85,NW,315,4.0,7.0,53,0.00,,,0.00,WUHU21023XXSP,2013-10-26 17:05:00,
2013-10-26 12:12:00,50.7,34.2,29.85,NW,315,8.0,8.0,53,0.00,,,0.00,WUHU21023XXSP,2013-10-26 17:12:00,
2013-10-26 12:18:00,50.7,34.2,29.85,NW,315,7.0,8.0,53,0.00,,,0.00,WUHU21023XXSP,2013-10-26 17:18:00,
2013-10-26 12:24:00,50.9,34.3,29.85,NNW,337,3.0,7.0,53,0.00,,,0.00,WUHU21023XXSP,2013-10-26 17:24:00,
2013-10-26 12:31:00,51.1,34.5,29.85,NNW,337,4.0,5.0,53,0.00,,,0.00,WUHU21023XXSP,2013-10-26 17:31:00,
2013-10-26 12:37:00,51.4,34.4,29.85,NW,315,6.0,6.0,52,0.00,,,0.00,WUHU21023XXSP,2013-10-26 17:37:00,
2013-10-26 12:44:00,51.6,34.5,29.85,NW,315,5.0,9.0,52,0.00,,,0.00,WUHU21023XXSP,2013-10-26 17:44:00,
2013-10-26 12:50:00,51.4,34.4,29.86,NW,315,2.0,5.0,52,0.00,,,0.00,WUHU21023XXSP,2013-10-26 17:50:00,
2013-10-26 12:56:00,50.9,33.4,29.86,NW,315,1.0,6.0,51,0.00,,,0.00,WUHU21023XXSP,2013-10-26 17:56:00,
2013-10-26 13:03:00,50.7,33.7,29.87,NW,315,3.0,6.0,52,0.00,,,0.00,WUHU21023XXSP,2013-10-26 18:03:00,
2013-10-26 13:09:00,50.5,34.0,29.87,WNW,292,7.0,7.0,53,0.00,,,0.00,WUHU21023XXSP,2013-10-26 18:09:00,
2013-10-26 13:16:00,50.4,33.9,29.87,NW,315,7.0,7.0,53,0.00,,,0.00,WUHU21023XXSP,2013-10-26 18:16:00,
2013-10-26 13:22:00,50.2,33.7,29.87,NW,315,3.0,7.0,53,0.00,,,0.00,WUHU21023XXSP,2013-10-26 18:22:00,
2013-10-26 13:29:00,50.4,33.9,29.87,NNW,337,7.0,7.0,53,0.00,,,0.00,WUHU21023XXSP,2013-10-26 18:29:00,
2013-10-26 13:35:00,50.9,34.3,29.87,West,270,10.0,10.0,53,0.00,,,0.00,WUHU21023XXSP,2013-10-26 18:35:00,
2013-10-26 13:41:00,51.6,34.5,29.87,NNW,337,6.0,10.0,52,0.00,,,0.00,WUHU21023XXSP,2013-10-26 18:41:00,
2013-10-26 13:48:00,51.6,33.6,29.87,NW,315,6.0,7.0,50,0.00,,,0.00,WUHU21023XXSP,2013-10-26 18:48:00,
2013-10-26 13:54:00,51.4,33.5,29.87,NW,315,4.0,7.0,50,0.00,,,0.00,WUHU21023XXSP,2013-10-26 18:54:00,
2013-10-26 14:01:00,51.1,33.2,29.89,NW,315,3.0,8.0,50,0.00,,,0.00,WUHU21023XXSP,2013-10-26 19:01:00,
2013-10-26 14:07:00,50.5,33.1,29.89,NW,315,5.0,11.0,51,0.00,,,0.00,WUHU21023XXSP,2013-10-26 19:07:00,
2013-10-26 14:14:00,50.2,32.8,29.89,NW,315,3.0,11.0,51,0.00,,,0.00,WUHU21023XXSP,2013-10-26 19:14:00,
2013-10-26 14:20:00,49.8,32.5,29.89,NW,315,6.0,6.0,51,0.00,,,0.00,WUHU21023XXSP,2013-10-26 19:20:00,
2013-10-26 14:26:00,49.8,32.5,29.90,NW,315,3.0,6.0,51,0.00,,,0.00,WUHU21023XXSP,2013-10-26 19:26:00,
2013-10-26 14:33:00,49.8,32.5,29.90,WNW,292,4.0,5.0,51,0.00,,,0.00,WUHU21023XXSP,2013-10-26 19:33:00,
2013-10-26 14:39:00,49.8,32.5,29.90,NW,315,5.0,5.0,51,0.00,,,0.00,WUHU21023XXSP,2013-10-26 19:39:00,
2013-10-26 14:46:00,49.8,32.5,29.91,NNW,337,11.0,11.0,51,0.00,,,0.00,WUHU21023XXSP,2013-10-26 19:46:00,
2013-10-26 14:52:00,50.5,33.1,29.91,NW,315,4.0,11.0,51,0.00,,,0.00,WUHU21023XXSP,2013-10-26 19:52:00,
2013-10-26 14:59:00,51.4,32.9,29.91,NW,315,4.0,6.0,49,0.00,,,0.00,WUHU21023XXSP,2013-10-26 19:59:00,
2013-10-26 15:05:00,51.3,32.2,29.92,NW,315,6.0,7.0,48,0.00,,,0.00,WUHU21023XXSP,2013-10-26 20:05:00,
2013-10-26 15:11:00,50.5,31.7,29.93,NW,315,4.0,6.0,49,0.00,,,0.00,WUHU21023XXSP,2013-10-26 20:11:00,
2013-10-26 15:18:00,50.2,31.8,29.93,NW,315,5.0,5.0,49,0.00,,,0.00,WUHU21023XXSP,2013-10-26 20:18:00,
2013-10-26 15:24:00,50.4,31.9,29.92,NW,315,4.0,5.0,49,0.00,,,0.00,WUHU21023XXSP,2013-10-26 20:24:00,
2013-10-26 15:31:00,51.4,32.4,29.91,NNW,337,4.0,5.0,48,0.00,,,0.00,WUHU21023XXSP,2013-10-26 20:31:00,
2013-10-26 15:37:00,52.5,32.8,29.91,NW,315,5.0,5.0,47,0.00,,,0.00,WUHU21023XXSP,2013-10-26 20:37:00,
2013-10-26 15:44:00,52.9,32.5,29.92,WNW,292,5.0,5.0,46,0.00,,,0.00,WUHU21023XXSP,2013-10-26 20:44:00,
2013-10-26 15:50:00,53.2,32.3,29.92,NW,315,7.0,7.0,45,0.00,,,0.00,WUHU21023XXSP,2013-10-26 20:50:00,
2013-10-26 15:56:00,53.2,31.7,29.93,NW,315,5.0,7.0,44,0.00,,,0.00,WUHU21023XXSP,2013-10-26 20:56:00,
2013-10-26 16:03:00,52.9,31.4,29.93,NW,315,3.0,5.0,44,0.00,,,0.00,WUHU21023XXSP,2013-10-26 21:03:00,
2013-10-26 16:09:00,52.0,31.2,29.94,NW,315,4.0,4.0,45,0.00,,,0.00,WUHU21023XXSP,2013-10-26 21:09:00,
2013-10-26 16:16:00,51.1,30.9,29.94,NW,315,4.0,4.0,46,0.00,,,0.00,WUHU21023XXSP,2013-10-26 21:16:00,
2013-10-26 16:22:00,50.5,31.0,29.94,NNW,337,3.0,4.0,47,0.00,,,0.00,WUHU21023XXSP,2013-10-26 21:22:00,
2013-10-26 16:29:00,50.4,31.4,29.94,NW,315,7.0,7.0,48,0.00,,,0.00,WUHU21023XXSP,2013-10-26 21:29:00,
2013-10-26 16:35:00,50.2,31.2,29.94,NW,315,4.0,7.0,48,0.00,,,0.00,WUHU21023XXSP,2013-10-26 21:35:00,
2013-10-26 16:41:00,50.4,31.9,29.94,NW,315,2.0,4.0,49,0.00,,,0.00,WUHU21023XXSP,2013-10-26 21:41:00,
2013-10-26 16:48:00,50.2,31.2,29.95,NW,315,1.0,6.0,48,0.00,,,0.00,WUHU21023XXSP,2013-10-26 21:48:00,
2013-10-26 16:54:00,49.6,31.3,29.95,NW,315,0.0,6.0,49,0.00,,,0.00,WUHU21023XXSP,2013-10-26 21:54:00,
2013-10-26 17:01:00,48.9,31.1,29.95,NW,315,3.0,4.0,50,0.00,,,0.00,WUHU21023XXSP,2013-10-26 22:01:00,
2013-10-26 17:07:00,48.6,30.7,29.96,NW,315,2.0,3.0,50,0.00,,,0.00,WUHU21023XXSP,2013-10-26 22:07:00,
2013-10-26 17:14:00,48.2,30.4,29.96,WNW,292,1.0,3.0,50,0.00,,,0.00,WUHU21023XXSP,2013-10-26 22:14:00,
2013-10-26 17:20:00,48.0,30.2,29.96,West,270,3.0,4.0,50,0.00,,,0.00,WUHU21023XXSP,2013-10-26 22:20:00,
2013-10-26 17:26:00,47.8,30.5,29.97,NW,315,0.0,3.0,51,0.00,,,0.00,WUHU21023XXSP,2013-10-26 22:26:00,
2013-10-26 17:33:00,47.8,31.0,29.97,NW,315,1.0,3.0,52,0.00,,,0.00,WUHU21023XXSP,2013-10-26 22:33:00,
2013-10-26 17:39:00,47.5,30.6,29.97,WNW,292,0.0,1.0,52,0.00,,,0.00,WUHU21023XXSP,2013-10-26 22:39:00,
2013-10-26 17:46:00,47.3,30.5,29.98,NW,315,1.0,2.0,52,0.00,,,0.00,WUHU21023XXSP,2013-10-26 22:46:00,
2013-10-26 17:52:00,46.9,30.1,29.98,NW,315,0.0,2.0,52,0.00,,,0.00,WUHU21023XXSP,2013-10-26 22:52:00,
2013-10-26 17:59:00,46.6,30.3,29.98,WNW,292,1.0,2.0,53,0.00,,,0.00,WUHU21023XXSP,2013-10-26 22:59:00,
2013-10-26 18:05:00,46.2,29.9,29.98,WNW,292,0.0,1.0,53,0.00,,,0.00,WUHU21023XXSP,2013-10-26 23:05:00,
2013-10-26 18:11:00,46.0,29.8,29.98,WNW,292,0.0,0.0,53,0.00,,,0.00,WUHU21023XXSP,2013-10-26 23:11:00,
2013-10-26 18:18:00,45.5,29.3,29.99,WNW,292,0.0,0.0,53,0.00,,,0.00,WUHU21023XXSP,2013-10-26 23:18:00,
2013-10-26 18:24:00,45.0,29.3,30.00,West,270,0.0,1.0,54,0.00,,,0.00,WUHU21023XXSP,2013-10-26 23:24:00,
2013-10-26 18:31:00,44.4,28.8,30.00,NW,315,1.0,1.0,54,0.00,,,0.00,WUHU21023XXSP,2013-10-26 23:31:00,
2013-10-26 18:37:00,43.9,28.7,30.00,NW,315,0.0,1.0,55,0.00,,,0.00,WUHU21023XXSP,2013-10-26 23:37:00,
2013-10-26 18:44:00,43.7,28.5,30.00,NW,315,1.0,1.0,55,0.00,,,0.00,WUHU21023XXSP,2013-10-26 23:44:00,
2013-10-26 18:50:00,43.7,28.5,30.01,NW,315,0.0,1.0,55,0.00,,,0.00,WUHU21023XXSP,2013-10-26 23:50:00,
2013-10-26 18:56:00,43.7,29.0,30.01,NW,315,0.0,0.0,56,0.00,,,0.00,WUHU21023XXSP,2013-10-26 23:56:00,
2013-10-26 19:03:00,43.3,28.6,30.02,WNW,292,0.0,0.0,56,0.00,,,0.00,WUHU21023XXSP,2013-10-27 00:03:00,
2013-10-26 19:09:00,43.0,28.3,30.02,WNW,292,2.0,2.0,56,0.00,,,0.00,WUHU21023XXSP,2013-10-27 00:09:00,
2013-10-26 19:16:00,43.0,28.7,30.02,NW,315,1.0,2.0,57,0.00,,,0.00,WUHU21023XXSP,2013-10-27 00:16:00,
2013-10-26 19:22:00,43.0,28.7,30.02,WNW,292,0.0,2.0,57,0.00,,,0.00,WUHU21023XXSP,2013-10-27 00:22:00,
2013-10-26 19:28:00,43.0,29.1,30.02,WNW,292,0.0,0.0,58,0.00,,,0.00,WUHU21023XXSP,2013-10-27 00:28:00,
2013-10-26 19:35:00,42.6,28.8,30.03,WNW,292,0.0,0.0,58,0.00,,,0.00,WUHU21023XXSP,2013-10-27 00:35:00,
2013-10-26 19:41:00,42.6,28.8,30.03,WNW,292,0.0,0.0,58,0.00,,,0.00,WUHU21023XXSP,2013-10-27 00:41:00,
2013-10-26 19:48:00,42.4,28.6,30.03,WNW,292,0.0,0.0,58,0.00,,,0.00,WUHU21023XXSP,2013-10-27 00:48:00,
2013-10-26 19:54:00,42.6,28.8,30.03,WNW,292,0.0,0.0,58,0.00,,,0.00,WUHU21023XXSP,2013-10-27 00:54:00,
2013-10-26 20:01:00,42.6,29.7,30.04,WNW,292,0.0,0.0,60,0.00,,,0.00,WUHU21023XXSP,2013-10-27 01:01:00,
2013-10-26 20:07:00,42.6,29.7,30.03,WNW,292,0.0,0.0,60,0.00,,,0.00,WUHU21023XXSP,2013-10-27 01:07:00,
2013-10-26 20:13:00,42.6,29.2,30.04,WNW,292,0.0,0.0,59,0.00,,,0.00,WUHU21023XXSP,2013-10-27 01:13:00,
2013-10-26 20:20:00,42.6,29.2,30.04,WNW,292,0.0,0.0,59,0.00,,,0.00,WUHU21023XXSP,2013-10-27 01:20:00,
2013-10-26 20:26:00,42.6,29.2,30.04,WNW,292,0.0,1.0,59,0.00,,,0.00,WUHU21023XXSP,2013-10-27 01:26:00,
2013-10-26 20:33:00,42.6,29.2,30.04,WNW,292,0.0,1.0,59,0.00,,,0.00,WUHU21023XXSP,2013-10-27 01:33:00,
2013-10-26 20:39:00,42.4,29.1,30.04,WNW,292,0.0,0.0,59,0.00,,,0.00,WUHU21023XXSP,2013-10-27 01:39:00,
2013-10-26 20:45:00,42.4,29.5,30.04,WNW,292,0.0,0.0,60,0.00,,,0.00,WUHU21023XXSP,2013-10-27 01:45:00,
2013-10-26 20:52:00,42.4,29.5,30.04,WNW,292,0.0,0.0,60,0.00,,,0.00,WUHU21023XXSP,2013-10-27 01:52:00,
2013-10-26 20:58:00,42.4,29.1,30.04,WNW,292,0.0,1.0,59,0.00,,,0.00,WUHU21023XXSP,2013-10-27 01:58:00,
2013-10-26 21:05:00,42.4,29.5,30.04,WNW,292,1.0,1.0,60,0.00,,,0.00,WUHU21023XXSP,2013-10-27 02:05:00,
2013-10-26 21:11:00,42.3,29.4,30.04,WNW,292,0.0,1.0,60,0.00,,,0.00,WUHU21023XXSP,2013-10-27 02:11:00,
2013-10-26 21:18:00,42.1,28.7,30.04,WNW,292,1.0,2.0,59,0.00,,,0.00,WUHU21023XXSP,2013-10-27 02:18:00,
2013-10-26 21:24:00,42.1,29.2,30.05,WNW,292,0.0,1.0,60,0.00,,,0.00,WUHU21023XXSP,2013-10-27 02:24:00,
2013-10-26 21:30:00,42.1,29.2,30.04,WNW,292,0.0,0.0,60,0.00,,,0.00,WUHU21023XXSP,2013-10-27 02:30:00,
2013-10-26 21:37:00,42.1,29.2,30.04,WNW,292,0.0,0.0,60,0.00,,,0.00,WUHU21023XXSP,2013-10-27 02:37:00,
2013-10-26 21:43:00,42.1,29.2,30.05,WNW,292,0.0,0.0,60,0.00,,,0.00,WUHU21023XXSP,2013-10-27 02:43:00,
2013-10-26 21:50:00,42.1,29.2,30.05,WNW,292,0.0,0.0,60,0.00,,,0.00,WUHU21023XXSP,2013-10-27 02:50:00,
2013-10-26 21:56:00,41.7,29.2,30.05,WNW,292,0.0,0.0,61,0.00,,,0.00,WUHU21023XXSP,2013-10-27 02:56:00,
2013-10-26 22:03:00,41.5,29.1,30.05,WNW,292,0.0,0.0,61,0.00,,,0.00,WUHU21023XXSP,2013-10-27 03:03:00,
2013-10-26 22:09:00,41.5,29.1,30.05,WNW,292,0.0,0.0,61,0.00,,,0.00,WUHU21023XXSP,2013-10-27 03:09:00,
2013-10-26 22:15:00,41.4,28.9,30.04,WNW,292,0.0,0.0,61,0.00,,,0.00,WUHU21023XXSP,2013-10-27 03:15:00,
2013-10-26 22:22:00,41.2,28.8,30.04,WNW,292,0.0,0.0,61,0.00,,,0.00,WUHU21023XXSP,2013-10-27 03:22:00,
2013-10-26 22:28:00,40.8,28.4,30.04,WNW,292,0.0,1.0,61,0.00,,,0.00,WUHU21023XXSP,2013-10-27 03:28:00,
2013-10-26 22:35:00,40.5,28.1,30.04,WNW,292,0.0,1.0,61,0.00,,,0.00,WUHU21023XXSP,2013-10-27 03:35:00,
2013-10-26 22:41:00,40.1,28.1,30.04,WNW,292,0.0,0.0,62,0.00,,,0.00,WUHU21023XXSP,2013-10-27 03:41:00,
2013-10-26 22:48:00,39.7,27.7,30.03,WNW,292,0.0,0.0,62,0.00,,,0.00,WUHU21023XXSP,2013-10-27 03:48:00,
2013-10-26 22:54:00,39.4,27.7,30.03,West,270,0.0,0.0,63,0.00,,,0.00,WUHU21023XXSP,2013-10-27 03:54:00,
2013-10-26 23:00:00,39.0,27.4,30.04,West,270,0.0,0.0,63,0.00,,,0.00,WUHU21023XXSP,2013-10-27 04:00:00,
2013-10-26 23:03:00,39.0,27.4,30.04,West,270,0.0,0.0,63,0.00,,,0.00,WUHU21023XXSP,2013-10-27 04:03:00,
2013-10-26 23:05:00,39.0,27.4,30.04,West,270,0.0,0.0,63,0.00,,,0.00,WUHU21023XXSP,2013-10-27 04:05:00,
2013-10-26 23:07:00,38.8,27.2,30.04,West,270,0.0,0.0,63,0.00,,,0.00,WUHU21023XXSP,2013-10-27 04:07:00,
2013-10-26 23:09:00,38.8,27.2,30.04,West,270,0.0,0.0,63,0.00,,,0.00,WUHU21023XXSP,2013-10-27 04:09:00,
2013-10-26 23:13:00,38.8,27.6,30.04,West,270,0.0,0.0,64,0.00,,,0.00,WUHU21023XXSP,2013-10-27 04:13:00,
2013-10-26 23:20:00,38.8,27.6,30.04,West,270,0.0,0.0,64,0.00,,,0.00,WUHU21023XXSP,2013-10-27 04:20:00,
2013-10-26 23:24:00,38.8,28.0,30.04,West,270,0.0,0.0,65,0.00,,,0.00,WUHU21023XXSP,2013-10-27 04:24:00,
2013-10-26 23:30:00,38.8,28.0,30.04,West,270,0.0,0.0,65,0.00,,,0.00,WUHU21023XXSP,2013-10-27 04:30:00,
2013-10-26 23:37:00,38.7,28.2,30.04,West,270,0.0,0.0,66,0.00,,,0.00,WUHU21023XXSP,2013-10-27 04:37:00,
2013-10-26 23:43:00,38.5,28.0,30.04,West,270,0.0,0.0,66,0.00,,,0.00,WUHU21023XXSP,2013-10-27 04:43:00,
2013-10-26 23:50:00,38.3,27.9,30.03,West,270,0.0,0.0,66,0.00,,,0.00,WUHU21023XXSP,2013-10-27 04:50:00,
2013-10-26 23:56:00,38.1,27.7,30.03,West,270,0.0,0.0,66,0.00,,,0.00,WUHU21023XXSP,2013-10-27 04:56:00,